User: anonymous   Login
Location: Unspecified
(0.0000°N, 0.0000°E)
Time: 22:40:38
(UTC+02:00)
Language:

Cosmos 1125 Rocket - Orbit

View from above orbital plane
View from above orbital plane
View from above satellite
View from above satellite

Ground track
Ground track

The orbit data is extracted from the following two-line orbital elements,

1 11511U 79078B   15116.85079563  .00000324  00000-0  11889-3 0  9996
2 11511 074.0361 313.0787 0015236 025.2625 334.9270 14.36608204866260
Epoch (UTC): 26 April 2015 20:25:08
Eccentricity: 0.0015236
inclination: 74.0361°
perigee height: 759 km
apogee height: 780 km
right ascension of ascending node: 313.0787°
argument of perigee: 25.2625°
revolutions per day: 14.36608204
mean anomaly at epoch: 334.9270°
orbit number at epoch: 86626

The dashed part of the orbit path shows where the satellite is in the earth's shadow,  

DLR